Time,TemperatureC,DewpointC,PressurehPa,WindDirection,WindDirectionDegrees,WindSpeedKMH,WindSpeedGustKMH,Humidity,HourlyPrecipMM,Conditions,Clouds,dailyrainMM,SolarRadiationWatts/m^2,UVIndex,SoftwareType,DateUTC
2026-09-02 00:04:58,5.3,3.7,1006.2,ESE,107,0.1,1.6,89.7,0.0,,,0.0,0,0,n/a,2026-09-01T12:04:58Z
2026-09-02 00:09:54,5.3,3.8,1006.1,ESE,107,0.5,1.9,90,0.0,,,0.0,0,0,n/a,2026-09-01T12:09:54Z
2026-09-02 00:14:58,5.3,3.8,1006.1,ESE,107,0.3,1.9,90,0.0,,,0.0,0,0,n/a,2026-09-01T12:14:58Z
2026-09-02 00:19:56,5.3,3.8,1006.0,ESE,107,0,1.9,90,0.0,,,0.0,0,0,n/a,2026-09-01T12:19:56Z
2026-09-02 00:24:55,5.2,3.7,1006.0,ESE,107,0.1,1.9,90,0.0,,,0.0,0,0,n/a,2026-09-01T12:24:55Z
2026-09-02 00:29:54,5.1,3.6,1006.1,ESE,107,1.4,3.7,90,0.0,,,0.0,0,0,n/a,2026-09-01T12:29:54Z
2026-09-02 00:34:58,5,3.5,1006.2,ESE,107,0.1,3.7,90,0.0,,,0.0,0,0,n/a,2026-09-01T12:34:58Z
2026-09-02 00:39:53,4.9,3.4,1006.2,ESE,107,1.1,3.7,90,0.0,,,0.0,0,0,n/a,2026-09-01T12:39:53Z
2026-09-02 00:44:54,4.9,3.4,1006.2,ESE,107,0.4,3.7,90,0.0,,,0.0,0,0,n/a,2026-09-01T12:44:54Z
2026-09-02 00:49:57,4.8,3.3,1006.3,ESE,107,0.2,1.9,90,0.0,,,0.0,0,0,n/a,2026-09-01T12:49:57Z
2026-09-02 00:54:57,4.7,3.2,1006.4,ESE,107,0,0,90,0.0,,,0.0,0,0,n/a,2026-09-01T12:54:57Z
2026-09-02 00:59:55,4.7,3.2,1006.4,ESE,107,0,0,90,0.0,,,0.0,0,0,n/a,2026-09-01T12:59:55Z
2026-09-02 01:04:55,4.7,3.2,1006.4,ESE,107,0.1,3.2,90,0.0,,,0.0,0,0,n/a,2026-09-01T13:04:55Z
2026-09-02 01:09:55,4.7,3.2,1006.6,ESE,107,0.3,3.7,90,0.0,,,0.0,0,0,n/a,2026-09-01T13:09:55Z
2026-09-02 01:14:54,4.7,3.2,1006.5,ESE,107,0.2,1.9,90,0.0,,,0.0,0,0,n/a,2026-09-01T13:14:54Z
2026-09-02 01:19:56,4.7,3.2,1006.6,ESE,107,0.1,1.9,90,0.0,,,0.0,0,0,n/a,2026-09-01T13:19:56Z
2026-09-02 01:24:59,4.7,3.2,1006.6,ESE,107,0.3,1.9,90,0.0,,,0.0,0,0,n/a,2026-09-01T13:24:59Z
2026-09-02 01:29:58,4.7,3.2,1006.6,ESE,107,0.1,1.9,90.5,0.0,,,0.0,0,0,n/a,2026-09-01T13:29:58Z
2026-09-02 01:34:56,4.7,3.3,1006.6,ESE,107,1.2,3.7,91,0.0,,,0.0,0,0,n/a,2026-09-01T13:34:56Z
2026-09-02 01:39:56,4.7,3.3,1006.7,South,170,0.9,3.7,91,0.0,,,0.0,0,0,n/a,2026-09-01T13:39:56Z
2026-09-02 01:44:58,4.6,3.3,1006.8,South,174,1.6,5.6,91,0.0,,,0.0,0,0,n/a,2026-09-01T13:44:58Z
2026-09-02 01:49:54,4.6,3.3,1006.8,South,181,0.7,3.7,91,0.0,,,0.0,0,0,n/a,2026-09-01T13:49:54Z
2026-09-02 01:54:56,4.6,3.3,1006.9,South,181,0.4,3.2,91,0.0,,,0.0,0,0,n/a,2026-09-01T13:54:56Z
2026-09-02 01:59:54,4.6,3.2,1006.9,South,182,0.5,3.7,91,0.0,,,0.0,0,0,n/a,2026-09-01T13:59:54Z
2026-09-02 02:04:56,4.5,3.2,1006.9,South,182,0.1,1.9,91,0.0,,,0.0,0,0,n/a,2026-09-01T14:04:56Z
2026-09-02 02:09:54,4.5,3.1,1006.9,South,182,0.1,1.9,91,0.0,,,0.0,0,0,n/a,2026-09-01T14:09:54Z
2026-09-02 02:14:58,4.4,3.1,1006.9,South,182,0.5,1.9,91,0.0,,,0.0,0,0,n/a,2026-09-01T14:14:58Z
2026-09-02 02:19:57,4.4,3.1,1006.9,South,182,0,1.9,91,0.0,,,0.0,0,0,n/a,2026-09-01T14:19:57Z
2026-09-02 02:24:56,4.4,3.1,1006.6,South,182,0,1.9,91,0.0,,,0.0,0,0,n/a,2026-09-01T14:24:56Z
2026-09-02 02:29:59,4.3,3,1006.5,South,182,0.3,1.9,91,0.0,,,0.0,0,0,n/a,2026-09-01T14:29:59Z
2026-09-02 02:34:54,4.3,3,1006.5,South,182,0,1.9,91,0.0,,,0.0,0,0,n/a,2026-09-01T14:34:54Z
2026-09-02 02:39:59,4.2,2.9,1006.5,South,182,1.9,3.7,91,0.0,,,0.0,0,0,n/a,2026-09-01T14:39:59Z
2026-09-02 02:44:59,4.2,2.8,1006.5,South,183,0.4,3.2,91,0.0,,,0.0,0,0,n/a,2026-09-01T14:44:59Z
2026-09-02 02:49:57,4.1,2.8,1006.4,South,184,0.1,3.7,91,0.0,,,0.0,0,0,n/a,2026-09-01T14:49:57Z
2026-09-02 02:54:59,4,2.7,1006.4,South,184,0.6,1.9,91,0.0,,,0.0,0,0,n/a,2026-09-01T14:54:59Z
2026-09-02 02:59:56,4,2.6,1006.4,South,184,0.2,3.2,91,0.0,,,0.0,0,0,n/a,2026-09-01T14:59:56Z
2026-09-02 03:04:56,4,2.6,1006.3,South,184,0.7,3.7,91,0.0,,,0.0,0,0,n/a,2026-09-01T15:04:56Z
2026-09-02 03:09:54,4,2.7,1006.3,South,184,0.7,3.7,91,0.0,,,0.0,0,0,n/a,2026-09-01T15:09:54Z
2026-09-02 03:14:56,4,2.7,1006.3,WSW,256,2.2,6.4,91,0.0,,,0.0,0,0,n/a,2026-09-01T15:14:56Z
2026-09-02 03:19:54,4,2.7,1006.2,West,279,0.1,1.9,91,0.0,,,0.0,0,0,n/a,2026-09-01T15:19:54Z
2026-09-02 03:24:57,3.9,2.6,1006.1,West,279,0.3,1.9,91,0.0,,,0.0,0,0,n/a,2026-09-01T15:24:57Z
2026-09-02 03:29:54,3.9,2.6,1006.3,West,279,0.2,1.9,91,0.0,,,0.0,0,0,n/a,2026-09-01T15:29:54Z
2026-09-02 03:34:58,3.9,2.5,1006.4,West,279,0.2,1.9,91,0.0,,,0.0,0,0,n/a,2026-09-01T15:34:58Z
2026-09-02 03:39:59,3.8,2.5,1006.2,West,279,0,0,91,0.0,,,0.0,0,0,n/a,2026-09-01T15:39:59Z
2026-09-02 03:44:55,3.8,2.4,1006.3,West,279,0.2,1.9,91,0.0,,,0.0,0,0,n/a,2026-09-01T15:44:55Z
2026-09-02 03:49:54,3.7,2.4,1006.3,West,279,0,1.9,91,0.0,,,0.0,0,0,n/a,2026-09-01T15:49:54Z
2026-09-02 03:54:51,3.7,2.3,1006.3,West,279,0.7,3.7,91,0.0,,,0.0,0,0,n/a,2026-09-01T15:54:51Z